Home > Time Zones > World Clock > Weather > India > Gonda > Past weeks

Flag for India Weather past 2 weeks in Gonda, Uttar Pradesh, India

Now
77 °F

Thunderstorms. Mostly cloudy.


Feels Like: 79 °F
Forecast: 78 / 102 °F
Wind: 5 mph from Southwest

Location: Lucknow / Amausi


UV Index: 7 (High)

Visibility: 2 mi


Pressure: 29.89 "Hg

Humidity: 57%

Dew point: 61 °F

Location of GondaLocation

Historic Weather in Gonda

°F

Gonda temperature yesterday

Maximum temperature yesterday: 104 °F (at 2:00 PM)
Minimum temperature yesterday: 66 °F (at 6:00 AM)
Average temperature yesterday: 83 °F

Past Weeks' High & Low Weather Summary

 TemperatureHumidityPressure
High109 °F (Apr 7, 4:00 PM)100% (Apr 8, 8:30 AM)29.95 "Hg (Apr 8, 8:30 AM)
Low61 °F (Apr 4, 5:30 AM)10% (Apr 10, 2:30 PM)29.62 "Hg (Apr 17, 7:00 PM)
Average85 °F36%29.78 "Hg
* Reported Apr 3 7:00 PM — Apr 18 6:30 PM, Gonda, Weather by CustomWeather, © 2014

Note: Actual official high and low records may vary slightly from our data, if they occured in-between our weather recording intervals... More about our weather records

Advertising

Historic Weather Conditions — Data for Previous 24 hours

 ConditionsComfort  
Time TempWeatherWind HumidityBarometerVisibility
6:30 PM
Apr 18
79 °FBroken clouds.3 mph51%29.80 "Hg2 mi
6:00 PM79 °FBroken clouds.9 mph51%29.80 "Hg2 mi
5:30 PM81 °FBroken clouds.12 mph48%29.80 "Hg2 mi
4:30 PM81 °FBroken clouds.14 mph45%29.86 "Hg1 mi
4:00 PM82 °FBroken clouds.12 mph42%29.83 "Hg1 mi
3:00 PM84 °FBroken clouds.12 mph45%29.86 "Hg2 mi
2:30 PM82 °FBroken clouds.14 mph48%29.89 "Hg2 mi
2:00 PM82 °FBroken clouds.14 mph51%29.92 "Hg2 mi
1:00 PM82 °FBroken clouds.14 mph48%29.92 "Hg2 mi
12:30 PM82 °FBroken clouds.12 mph51%29.89 "Hg2 mi
12:00 PM82 °FBroken clouds.12 mph51%29.89 "Hg2 mi
11:30 AM82 °FBroken clouds.14 mph48%29.89 "Hg2 mi
11:00 AM82 °FBroken clouds.16 mph48%29.89 "Hg2 mi
10:30 AM81 °FBroken clouds.17 mph51%29.92 "Hg2 mi
9:00 AM84 °FBroken clouds.6 mph43%29.86 "Hg2 mi
8:30 AM81 °FBroken clouds.5 mph51%29.83 "Hg2 mi
7:30 AM77 °FBroken clouds.3 mph54%29.80 "Hg1 mi
7:00 AM73 °FBroken clouds.7 mph61%29.77 "Hg1 mi
6:30 AM72 °FBroken clouds.3 mph61%29.77 "Hg1 mi
6:00 AM68 °FPartly cloudy.2 mph69%29.77 "Hg1 mi
5:30 AM70 °FPassing clouds.2 mph64%29.77 "Hg1 mi
5:00 AM70 °FPassing clouds.No wind64%29.77 "Hg1 mi
4:00 AM70 °FPassing clouds.2 mph64%29.77 "Hg1 mi
3:00 AM70 °FPassing clouds.2 mph64%29.77 "Hg1 mi
2:00 AM68 °FPassing clouds.1 mph69%29.74 "Hg1 mi
1:00 AM68 °FPassing clouds.2 mph69%29.74 "Hg1 mi
10:00 PM
Apr 17
73 °FPassing clouds.No wind53%29.74 "Hg2 mi
9:00 PM77 °FPassing clouds.2 mph51%29.74 "Hg2 mi
8:30 PM79 °FPassing clouds.6 mph48%29.71 "Hg2 mi
8:00 PM81 °FPassing clouds.6 mph45%29.71 "Hg2 mi
Weather by CustomWeather, © 2014

See weather overview